Location: Brusselschebosschen
(51.3167°N, 4.4500°E)
Time: 10:35:48
(UTC+00:00)

Daily predictions for brighter satellites

Satellite Brightness Start Highest point End
(mag) Time Altitude Azimuth Time Altitude Azimuth Time Altitude Azimuth
SL-16 R/B 2.7 16:15:19 10° NNE 16:21:34 63° ESE 16:27:46 10° S
Thor Agena Rocket 3.6 16:17:58 10° SSE 16:23:10 64° ENE 16:28:24 10° N
Cosmos 2344 4.2 16:20:00 10° NW 16:26:55 40° NNE 16:35:17 10° E
CZ-4C R/B 2.6 16:26:17 10° WSW 16:30:44 51° NW 16:36:32 10° NE
ATLAS 2AS CENTAUR R/B 3.6 16:25:57 10° NW 16:31:56 30° N 16:37:49 10° ENE
Cosmos 2263 Rocket 4.3 16:29:30 10° WNW 16:32:56 16° NNW 16:36:23 10° N
UNK 4.2 16:30:04 10° NNE 16:34:27 41° E 16:38:49 10° S
Cosmos 1844 Rocket 3.9 16:29:34 10° WSW 16:34:45 38° NW 16:39:58 10° NNE
Cosmos 1459 Rocket 4.3 16:30:08 10° SSW 16:36:26 75° WNW 16:42:51 10° N
YAOGAN 1 4.1 16:33:55 10° E 16:36:30 16° ENE 16:39:03 10° NNE
COSMOS 2406 4.2 16:36:12 10° NNW 16:40:57 26° NE 16:45:41 10° E
Cosmos 2084 Rocket 3.4 16:37:53 10° SW 16:42:03 78° SE 16:46:17 10° NE
ATLAS CENTAUR R/B 2.3 16:41:26 10° WSW 16:44:34 31° NW 16:47:43 10° NNE
Cosmos 1441 Rocket 3.9 16:42:09 10° NNW 16:45:24 51° W 16:48:40 10° S
Cosmos 1833 Rocket 3.3 16:40:43 10° NW 16:46:19 64° WSW 16:51:53 10° SSE
SAR-Lupe-4 3.6 16:43:19 10° SSE 16:46:50 57° ENE 16:50:22 10° N
ARIANE 5 R/B 2.5 16:42:37 10° SSE 16:47:31 61° ENE 16:52:27 10° N
USA 215 3.6 16:48:15 10° SE 16:54:47 70° SW 17:01:20 10° WNW
Timation 1 Rocket 4.3 16:48:48 10° NNW 16:54:47 68° NE 17:00:43 10° SE
IRS-P3 4.2 16:53:05 10° SE 16:58:18 57° ENE 17:03:32 10° N
ATLAS 5 CENTAUR R/B 3.0 16:56:04 10° NW 17:00:13 45° SW 17:05:17 10° SSE
MOS 1 Rocket 3.5 16:56:20 10° SE 17:00:25 42° ENE 17:04:43 10° N
Resurs 01 Rocket 3.3 17:08:57 15° NE 17:08:57 15° NE 17:10:59 10° NNE
SJ-6F 4.3 17:05:02 10° SSE 17:08:51 58° ENE 17:12:45 10° N
RESURS DK-1 2.2 17:04:54 10° NNW 17:08:57 85° ENE 17:12:57 10° SSE
Cosmos 1602 3.8 17:06:19 10° N 17:09:07 31° ENE 17:11:55 10° SE
Cosmos 2233 Rocket 4.1 17:02:54 10° S 17:09:13 88° WNW 17:15:36 10° N
Cosmos 407 Rocket 3.7 17:05:15 10° S 17:10:15 51° ESE 17:15:13 10° NNE
Cosmos 2061 Rocket 4.0 17:05:25 10° S 17:11:43 88° ESE 17:18:00 10° N
Geosat FO 4.0 17:12:34 10° SE 17:15:24 59° NE 17:18:16 10° NNW
ISS -2.8 17:12:36 10° SW 17:15:40 34° SSE 17:17:12 22° ESE
Cosmos 1782 Rocket 3.9 17:11:33 10° SSW 17:15:58 68° WNW 17:20:24 10° N
CZ-2D R/B 2.8 17:13:33 10° S 17:16:42 77° WSW 17:19:52 10° NNW
Cosmos 1869 2.9 17:14:13 10° S 17:17:41 58° E 17:21:09 10° NNE
USA 281 4.1 17:15:06 17° E 17:18:53 28° NE 17:24:16 10° NNW
SPOT 1/Viking Rocket 3.7 17:14:28 10° SE 17:19:28 51° ENE 17:24:30 10° N
Cosmos 1300 Rocket 4.2 17:15:52 10° SSW 17:20:11 56° WNW 17:24:30 10° N
COSMO-SKYMED 1 3.5 17:21:26 23° E 17:22:04 24° E 17:25:26 10° SSE
SJ-12 4.0 17:19:44 10° S 17:23:31 71° WSW 17:27:19 10° NNW
Cosmos 1464 Rocket 4.3 17:19:21 10° SSE 17:25:11 42° E 17:30:59 10° NNE
AQUARIUS 4.1 17:22:55 10° SSE 17:27:19 84° WSW 17:31:46 10° NNW
SL-12 R/B(2) 4.4 17:20:21 10° SSW 17:28:15 66° SE 17:36:59 13° NE
Cosmos 540 Rocket 3.6 17:23:44 10° NNW 17:28:53 79° WSW 17:34:00 10° SSE
BREEZE-M DEB (TANK) 2.8 17:27:25 10° SW 17:29:55 45° SSE 17:32:21 24° E
Cosmos 1400 Rocket 3.7 17:28:26 10° SSE 17:31:13 27° ESE 17:31:13 27° ESE
Cosmos 1975 Rocket 4.0 17:27:54 10° NNW 17:32:06 50° W 17:36:19 10° S
Spot 4 Rocket 4.0 17:28:17 10° SE 17:33:16 57° ENE 17:38:16 10° N
Cosmos 1763 Rocket 4.0 17:29:10 10° NNW 17:34:21 62° WSW 17:39:24 10° S
Cosmos 1812 1.8 17:34:10 10° S 17:37:02 62° E 17:37:34 49° NE
Cosmos 2034 Rocket 4.4 17:32:55 10° SSE 17:38:28 36° E 17:44:07 10° NNE
Cosmos 1140 Rocket 4.2 17:37:09 10° SW 17:42:12 54° WNW 17:47:16 10° NNE
Cosmos 2058 2.6 17:38:13 10° N 17:42:13 81° E 17:46:12 10° SSE
Cosmos 2151 Rocket 3.8 17:38:00 10° SSE 17:42:18 47° E 17:45:29 17° NNE
Cosmos 44 Rocket 3.3 17:40:18 10° SSW 17:44:59 59° SE 17:47:06 32° ENE
SKYMED 2 3.5 17:45:23 15° NNE 17:48:52 61° ESE 17:53:10 10° S
Cosmos 1943 Rocket 2.1 17:44:24 10° SSW 17:50:01 83° ESE 17:54:09 19° NNE
Helios 1A Rocket 3.8 17:51:57 25° SSE 17:51:57 25° SSE 17:53:42 10° S
Cosmos 1092 Rocket 4.3 17:44:50 10° N 17:50:42 40° ENE 17:54:59 17° SE
Okean 1 Rocket 3.6 17:48:08 10° SSE 17:51:43 37° ESE 17:51:43 37° ESE
SJ-7 4.0 17:48:40 10° SSE 17:52:20 72° ENE 17:56:01 10° N
CZ-2D R/B 3.4 17:48:11 10° SSE 17:52:20 90° SSW 17:56:35 10° NNW
IRAS Rocket 4.1 17:47:14 10° SSE 17:52:47 81° ENE 17:58:20 10° NNW
Cosmos 2082 Rocket 2.2 17:47:27 10° NNW 17:53:06 80° WSW 17:58:43 10° SSE
Sich 1 Rocket 4.0 17:49:00 10° SSE 17:53:15 41° E 17:53:29 41° E
PSLV R/B 3.2 17:49:54 10° SSE 17:53:54 69° ENE 17:57:56 10° N
Cosmos 2026 Rocket 4.1 17:51:27 10° N 17:57:20 48° ENE 18:03:14 10° SSE
Cosmos 1072 Rocket 4.3 17:52:10 10° S 17:58:17 75° E 18:04:24 10° NNE
ARIANE 6 FM1 Upper Stage 4.5 17:55:54 10° NW 17:58:40 18° N 17:59:22 17° N
Cosmos 2278 Rocket 2.1 17:53:08 10° SSW 17:58:49 90° ESE 18:02:47 21° NNE
NOAA 6 3.9 17:55:36 10° SSE 18:00:40 64° ENE 18:05:46 10° N
BREEZE-M DEB (TANK) 3.6 17:58:46 10° SW 18:01:41 50° SSE 18:03:16 37° ESE
Aureole 3 Rocket 2.7 17:58:45 10° SSW 18:01:44 60° WNW 18:03:12 28° N
BREEZE-M DEB (TANK) 3.1 17:59:50 10° WSW 18:02:32 73° SSE 18:04:09 41° E
Cosmos 1346 Rocket 4.5 18:00:44 10° N 18:01:56 19° N 18:01:56 19° N
SL-16 R/B 4.2 17:59:23 10° N 18:04:47 31° WNW 18:10:09 10° WSW
Geosat 3.9 18:04:10 33° SE 18:06:25 69° NE 18:11:25 10° NNW
Cosmos 2251 Rocket 3.4 18:04:19 10° SSW 18:09:36 85° ESE 18:12:38 27° NNE
YAOGAN 1 2.6 18:07:32 10° S 18:11:48 78° WSW 18:16:06 10° NNW
Cosmos 371 Rocket 3.4 18:08:32 10° S 18:12:52 51° ESE 18:12:52 51° ESE
Cosmos 841 Rocket 3.4 18:08:50 10° NNW 18:14:08 84° ENE 18:17:15 25° SSE
Cosmos 304 Rocket 3.8 18:09:39 10° S 18:13:57 54° SE 18:13:57 54° SE
SJ 16-02 1.1 18:11:31 10° SSW 18:15:42 71° ESE 18:15:42 71° ESE
SL-19 R/B 4.2 18:10:50 10° SSE 18:16:02 77° WSW 18:21:18 10° NNW
Nadezhda 4 Rocket 4.1 18:13:08 10° NNW 18:19:26 76° W 18:25:38 10° S
CZ-4C R/B 3.7 18:15:50 10° WNW 18:20:21 27° N 18:22:35 22° NNE
ATLAS CENTAUR R/B 3.6 18:19:23 10° NW 18:20:35 11° NNW 18:20:45 11° NNW
Cosmos 1862 4.0 18:18:20 10° NNW 18:21:51 47° W 18:25:21 10° S
Resurs 1-3 3.9 18:19:32 10° S 18:23:48 64° WSW 18:28:06 10° NNW
ATLAS 2AS CENTAUR R/B 2.8 18:17:30 10° NW 18:24:12 56° NE 18:25:35 48° ENE
COSMOS 2406 3.2 18:20:10 10° NNW 18:25:53 81° WSW 18:29:07 27° SSE
Cosmos 1627 Rocket 4.3 18:21:47 10° N 18:27:56 74° ENE 18:34:06 10° SSE
Cosmos 1656 Rocket 4.3 18:24:42 10° S 18:28:33 39° SSE 18:28:33 39° SSE
Cosmos 2195 Rocket 4.5 18:26:59 10° N 18:33:20 86° W 18:39:41 10° S
Okean 2 Rocket 3.3 18:32:46 10° SSW 18:37:08 66° WNW 18:37:52 55° NNW
Cosmos 1190 Rocket 4.3 18:35:17 10° SW 18:40:33 67° WNW 18:42:26 40° N
Cosmos 2344 3.8 18:34:27 10° NW 18:42:17 89° SW 18:47:32 32° SE
Cosmos 676 Rocket 3.9 18:38:06 10° SSW 18:43:15 84° SSE 18:43:15 84° SSE
Resurs 01 Rocket 3.0 18:46:22 31° NNW 18:46:22 31° NNW 18:48:42 10° NNW
Meteor 2-3 Rocket 3.8 18:39:33 10° NNW 18:45:17 75° W 18:49:59 15° S
Cosmos 2297 Rocket 4.3 18:46:21 10° N 18:48:17 14° N 18:48:17 14° N
ISS -1.2 18:48:54 10° W 18:50:07 21° W 18:50:07 21° W
Cosmos 1954 Rocket 4.3 18:48:17 10° SW 18:53:31 64° WNW 18:54:18 56° NNW
COSMO-SKYMED 1 3.7 18:57:48 40° WNW 18:57:48 40° WNW 19:01:24 10° SW
USA 281 3.1 19:02:00 74° SE 19:02:42 88° ENE 19:09:20 10° NNW
Cosmos 1943 Rocket 4.0 19:29:49 10° W 19:34:25 25° NW 19:35:40 23° NNW
Cosmos 2278 Rocket 4.0 19:39:05 10° W 19:43:39 24° NW 19:44:37 23° NNW
SJ 16-02 4.3 19:51:22 10° W 19:52:17 14° W 19:52:17 14° W
CZ-4C R/B 4.3 20:04:58 10° NW 20:07:32 23° NNW 20:07:32 23° NNW
ATLAS 2AS CENTAUR R/B 3.8 20:08:38 10° NW 20:13:01 37° WNW 20:13:01 37° WNW
